Location: American Medical Response
(33.3472°N, 96.5511°W)
Time: 20:11:38
(UTC+00:00)

Lacrosse 5 rocket - Pass Details

Date: 08 July 2022
Orbit: 456 x 628 km, 57.0° (Epoch: 08 August)

Event Time Altitude Azimuth Distance (km) Brightness Sun altitude
Rises 02:23:32 0° 314° (NW) 2,591 6.9 -8.8°
Reaches altitude 10° 02:25:43 10° 307° (NW) 1,732 5.6 -9.2°
Maximum altitude 02:29:26 43° 235° (SW) 751 2.2 -9.8°
Drops below altitude 10° 02:33:21 10° 163° (SSE) 1,825 3.5 -10.5°
Enters shadow 02:33:34 - 163° (SSE) 1,910 3.6 -10.5°
